Flag for U.S.A. Weather past 2 weeks in El Monte, California, U.S.A.

Now
63 °F

Clear.


Feels Like: 63 °F
Forecast: 62 / 90 °F
Wind: No wind

Location: Fullerton Municipal Airport

Current Time: Sep 23, 2014 at 6:26:53 AM

Latest Report: Sep 23, 2014 at 5:53 AM


Visibility: 10 mi

Pressure: 29.94 "Hg

Humidity: 84%

Dew point: 58 °F

Location of El MonteLocation

Historic Weather in El Monte — Graph

°F

El Monte temperature yesterday

Maximum temperature yesterday: 83 °F (at 1:53 PM)
Minimum temperature yesterday: 62 °F (at 5:53 AM)
Average temperature yesterday: 72 °F

Past Weeks' High & Low Weather Summary

 TemperatureHumidityPressure
High104 °F (Sep 14, 2:53 PM)87% (Sep 22, 3:53 AM)29.99 "Hg (Sep 22, 3:53 AM)
Low62 °F (Sep 22, 5:53 AM)20% (Sep 9, 12:53 PM)29.66 "Hg (Sep 14, 2:53 PM)
Average79 °F56%29.81 "Hg
* Reported Sep 8 4:53 AM — Sep 23 4:53 AM, El Monte, Weather by CustomWeather, © 2014

Note: Actual official high and low records may vary slightly from our data, if they occured in-between our weather recording intervals... More about our weather records

Advertising

El Monte weather history for previous 24 hours

 ConditionsComfort  
Time TempWeatherWind HumidityBarometerVisibility
4:53 AM
Sep 23
64 °FClear.No wind84%29.92 "Hg10 mi
3:53 AM64 °FClear.No wind84%29.93 "Hg10 mi
2:53 AM66 °FClear.No wind81%29.93 "Hg10 mi
1:53 AM66 °FClear.No wind81%29.94 "Hg10 mi
12:53 AM67 °FClear.No wind81%29.94 "Hg10 mi
11:53 PM
Sep 22
68 °FClear.No wind78%29.93 "Hg10 mi
10:53 PM69 °FClear.3 mph79%29.93 "Hg10 mi
9:53 PM70 °FClear.3 mph76%29.92 "Hg10 mi
8:53 PM72 °FClear.3 mph68%29.91 "Hg10 mi
7:53 PM74 °FClear.3 mph64%29.90 "Hg10 mi
6:53 PM78 °FSunny.8 mph52%29.88 "Hg10 mi
5:53 PM81 °FSunny.7 mph53%29.88 "Hg10 mi
4:53 PM82 °FSunny.7 mph49%29.88 "Hg10 mi
3:53 PM82 °FSunny.7 mph51%29.89 "Hg10 mi
2:53 PM82 °FSunny.6 mph51%29.91 "Hg10 mi
1:53 PM83 °FSunny.8 mph50%29.92 "Hg10 mi
12:53 PM82 °FSunny.7 mph51%29.94 "Hg10 mi
11:53 AM81 °FSunny.3 mph51%29.96 "Hg10 mi
10:53 AM77 °FSunny.6 mph56%29.98 "Hg10 mi
9:53 AM74 °FSunny.3 mph64%29.98 "Hg9 mi
8:53 AM70 °FSunny.No wind71%29.97 "Hg8 mi
7:53 AM66 °FSunny.No wind75%29.96 "Hg10 mi
6:53 AM62 °FClear.No wind83%29.95 "Hg9 mi
Weather by CustomWeather, © 2014

See weather overviewHow to use our weather pages